Flag for U.S.A. Weather past 2 weeks in New York, New York, U.S.A.

Now
39 °F

Mostly cloudy.


Feels Like: 36 °F
Forecast: 36 / 55 °F
Wind: 5 mph from North

Location: New York City - Central Park

Current Time: Mar 30, 2015 at 5:42:32 AM

Latest Report: Mar 30, 2015 at 4:51 AM


Visibility: 10 mi

Pressure: 29.98 "Hg

Humidity: 33%

Dew point: 12 °F

Location of New YorkLocation

Historic Weather in New York — Graph

°F

New York temperature yesterday

Maximum temperature yesterday: 46 °F (at 5:51 PM)
Minimum temperature yesterday: 25 °F (at 6:51 AM)
Average temperature yesterday: 35 °F

Past Weeks' High & Low Weather Summary

 TemperatureHumidityPressure
High62 °F (Mar 26, 8:51 PM)93% (Mar 26, 1:02 PM)30.41 "Hg (Mar 26, 1:02 PM)
Low23 °F (Mar 23, 6:51 AM)16% (Mar 29, 7:51 PM)29.55 "Hg (Mar 17, 11:51 AM)
Average38 °F50%30.03 "Hg
* Reported Mar 15 3:51 AM — Mar 30 3:51 AM, New York, Weather by CustomWeather, © 2015

Note: Actual official high and low records may vary slightly from our data, if they occured in-between our weather recording intervals... More about our weather records

Advertising

New York weather history for previous 24 hours

 ConditionsComfort  
Time TempWeatherWind HumidityBarometerVisibility
3:51 AM
Mon, Mar 30
39 °FPassing clouds.7 mph33%30.01 "Hg10 mi
2:51 AM39 °FPassing clouds.5 mph31%30.04 "Hg10 mi
1:51 AM39 °FClear.9 mph31%30.07 "Hg10 mi
12:51 AM40 °FClear.6 mph30%30.11 "Hg10 mi
11:51 PM
Sun, Mar 29
40 °FClear.N/A33%30.11 "Hg10 mi
10:51 PM41 °FClear.6 mph28%30.13 "Hg10 mi
9:51 PM42 °FClear.8 mph25%30.14 "Hg10 mi
8:51 PM40 °FClear.3 mph41%30.14 "Hg10 mi
7:51 PM45 °FSunny.6 mph16%30.15 "Hg10 mi
6:51 PM45 °FSunny.5 mph18%30.16 "Hg10 mi
5:51 PM46 °FSunny.5 mph17%30.16 "Hg10 mi
4:51 PM45 °FSunny.9 mph17%30.16 "Hg10 mi
3:51 PM44 °FSunny.N/A18%30.18 "Hg10 mi
2:51 PM44 °FSunny.7 mph19%30.20 "Hg10 mi
1:51 PM40 °FSunny.3 mph19%30.24 "Hg10 mi
12:51 PM39 °FSunny.9 mph19%30.26 "Hg10 mi
11:51 AM37 °FSunny.6 mph20%30.27 "Hg10 mi
10:51 AM33 °FSunny.6 mph25%30.28 "Hg10 mi
9:51 AM31 °FSunny.5 mph29%30.28 "Hg10 mi
8:51 AM27 °FPassing clouds.5 mph37%30.26 "Hg10 mi
7:51 AM26 °FOvercast.8 mph38%30.25 "Hg10 mi
6:51 AM25 °FOvercast.12 mph38%30.22 "Hg10 mi
5:51 AM26 °FOvercast.6 mph40%30.19 "Hg10 mi
Weather by CustomWeather, © 2015

See weather overviewHow to use our weather pages